map of BTP home
BTP - Airport
Location
City:  Butler, Pennsylvania, United States
Name:Pittsburgh/Butler Regional
ICAO:KBTP
IATA:BTP
FAA LID:BTP

Details
Type:Airport (Airfield)
Use:Public/Civil
Latitude:4046'36"N (40.776583)
Longitude:7957'04"W (-79.951082)
Datum:WGS 1984
Elevation:1248 ft (380 m)
Variation:9.41W (WMM2015 magnetic declination)
-0.02 annual change
Runways:1
Longest:4801 × 100 ft (1463 × 30.5 m), paved

Time
Time Zone:UTC-5 (DST-4)
Local Time:

Weather
METAR:KBTP 210756Z AUTO 12007KT 10SM FEW038 21/19 A2996 RMK AO2 SLP143 T02060189

Related Locations
Nearby:
Farthest:YAUG: 11501 mi / 18508 km
Augusta [Augusta Airport], WA, AU

Find:

   beyond  
but within

Other Information
Maps:
NOTAMs:
Links:
Sources:

  
  • flag of United States
  • flag of Pennsylvania
  

Sectional Chart

Flight Planning
at skyvector.com

Satellite Image

Google Maps Satellite view

 

Copyright © 2004-2018 Karl L. Swartz. All rights reserved.
The Great Circle Mapper name and logo are trademarks of the Great Circle Mapper.
All other trademarks mentioned herein belong to their respective owners.
Please see credits for attibutions and further copyright information.

  Follow gcmap on Facebook Follow gcmap on Twitter Follow gcmap on Google+ GCmap on LinkedIn

hCard Microformat

Geo Microformat